Year,Month,Day,Hour,Minute,Value (Times are PST for insolation in W/m^2)
2015,12,21,00,00,0.00
2015,12,21,00,01,0.00
2015,12,21,00,02,0.00
2015,12,21,00,03,0.00
2015,12,21,00,04,0.00
2015,12,21,00,05,0.00
2015,12,21,00,06,0.00
2015,12,21,00,07,0.00
2015,12,21,00,08,0.00
2015,12,21,00,09,0.00
2015,12,21,00,10,0.00
2015,12,21,00,11,0.00
2015,12,21,00,12,0.00
2015,12,21,00,13,0.00
2015,12,21,00,14,0.00
2015,12,21,00,15,0.00
2015,12,21,00,16,0.00
2015,12,21,00,17,0.00
2015,12,21,00,18,0.00
2015,12,21,00,19,0.00
2015,12,21,00,20,0.00
2015,12,21,00,21,0.00
2015,12,21,00,22,0.00
2015,12,21,00,23,0.00
2015,12,21,00,24,0.00
2015,12,21,00,25,0.00
2015,12,21,00,26,0.00
2015,12,21,00,27,0.00
2015,12,21,00,28,0.00
2015,12,21,00,29,0.00
2015,12,21,00,30,0.00
2015,12,21,00,31,0.00
2015,12,21,00,32,0.00
2015,12,21,00,33,0.00
2015,12,21,00,34,0.00
2015,12,21,00,35,0.00
2015,12,21,00,36,0.00
2015,12,21,00,37,0.00
2015,12,21,00,38,0.00
2015,12,21,00,39,0.00
2015,12,21,00,40,0.00
2015,12,21,00,41,0.00
2015,12,21,00,42,0.00
2015,12,21,00,43,0.00
2015,12,21,00,44,0.00
2015,12,21,00,45,0.00
2015,12,21,00,46,0.00
2015,12,21,00,47,0.00
2015,12,21,00,48,0.00
2015,12,21,00,49,0.00
2015,12,21,00,50,0.00
2015,12,21,00,51,0.00
2015,12,21,00,52,0.00
2015,12,21,00,53,0.00
2015,12,21,00,54,0.00
2015,12,21,00,55,0.00
2015,12,21,00,56,0.00
2015,12,21,00,57,0.00
2015,12,21,00,58,0.00
2015,12,21,00,59,0.00
2015,12,21,01,00,0.00
2015,12,21,01,01,0.00
2015,12,21,01,02,0.00
2015,12,21,01,03,0.00
2015,12,21,01,04,0.00
2015,12,21,01,05,0.00
2015,12,21,01,06,0.00
2015,12,21,01,07,0.00
2015,12,21,01,08,0.00
2015,12,21,01,09,0.00
2015,12,21,01,10,0.00
2015,12,21,01,11,0.00
2015,12,21,01,12,0.00
2015,12,21,01,13,0.00
2015,12,21,01,14,0.00
2015,12,21,01,15,0.00
2015,12,21,01,16,0.00
2015,12,21,01,17,0.00
2015,12,21,01,18,0.00
2015,12,21,01,19,0.00
2015,12,21,01,20,0.00
2015,12,21,01,21,0.00
2015,12,21,01,22,0.00
2015,12,21,01,23,0.00
2015,12,21,01,24,0.00
2015,12,21,01,25,0.00
2015,12,21,01,26,0.00
2015,12,21,01,27,0.00
2015,12,21,01,28,0.00
2015,12,21,01,29,0.00
2015,12,21,01,30,0.00
2015,12,21,01,31,0.00
2015,12,21,01,32,0.00
2015,12,21,01,33,0.00
2015,12,21,01,34,0.00
2015,12,21,01,35,0.00
2015,12,21,01,36,0.00
2015,12,21,01,37,0.00
2015,12,21,01,38,0.00
2015,12,21,01,39,0.00
2015,12,21,01,40,0.00
2015,12,21,01,41,0.00
2015,12,21,01,42,0.00
2015,12,21,01,43,0.00
2015,12,21,01,44,0.00
2015,12,21,01,45,0.00
2015,12,21,01,46,0.00
2015,12,21,01,47,0.00
2015,12,21,01,48,0.00
2015,12,21,01,49,0.00
2015,12,21,01,50,0.00
2015,12,21,01,51,0.00
2015,12,21,01,52,0.00
2015,12,21,01,53,0.00
2015,12,21,01,54,0.00
2015,12,21,01,55,0.00
2015,12,21,01,56,0.00
2015,12,21,01,57,0.00
2015,12,21,01,58,0.00
2015,12,21,01,59,0.00
2015,12,21,02,00,0.00
2015,12,21,02,01,0.00
2015,12,21,02,02,0.00
2015,12,21,02,03,0.00
2015,12,21,02,04,0.00
2015,12,21,02,05,0.00
2015,12,21,02,06,0.00
2015,12,21,02,07,0.00
2015,12,21,02,08,0.00
2015,12,21,02,09,0.00
2015,12,21,02,10,0.00
2015,12,21,02,11,0.00
2015,12,21,02,12,0.00
2015,12,21,02,13,0.00
2015,12,21,02,14,0.00
2015,12,21,02,15,0.00
2015,12,21,02,16,0.00
2015,12,21,02,17,0.00
2015,12,21,02,18,0.00
2015,12,21,02,19,0.00
2015,12,21,02,20,0.00
2015,12,21,02,21,0.00
2015,12,21,02,22,0.00
2015,12,21,02,23,0.00
2015,12,21,02,24,0.00
2015,12,21,02,25,0.00
2015,12,21,02,26,0.00
2015,12,21,02,27,0.00
2015,12,21,02,28,0.00
2015,12,21,02,29,0.00
2015,12,21,02,30,0.00
2015,12,21,02,31,0.00
2015,12,21,02,32,0.00
2015,12,21,02,33,0.00
2015,12,21,02,34,0.00
2015,12,21,02,35,0.00
2015,12,21,02,36,0.00
2015,12,21,02,37,0.00
2015,12,21,02,38,0.00
2015,12,21,02,39,0.00
2015,12,21,02,40,0.00
2015,12,21,02,41,0.00
2015,12,21,02,42,0.00
2015,12,21,02,43,0.00
2015,12,21,02,44,0.00
2015,12,21,02,45,0.00
2015,12,21,02,46,0.00
2015,12,21,02,47,0.00
2015,12,21,02,48,0.00
2015,12,21,02,49,0.00
2015,12,21,02,50,0.00
2015,12,21,02,51,0.00
2015,12,21,02,52,0.00
2015,12,21,02,53,0.00
2015,12,21,02,54,0.00
2015,12,21,02,55,0.00
2015,12,21,02,56,0.00
2015,12,21,02,57,0.00
2015,12,21,02,58,0.00
2015,12,21,02,59,0.00
2015,12,21,03,00,0.00
2015,12,21,03,01,0.00
2015,12,21,03,02,0.00
2015,12,21,03,06,0.00
2015,12,21,03,07,0.00
2015,12,21,03,08,0.00
2015,12,21,03,09,0.00
2015,12,21,03,10,0.00
2015,12,21,03,11,0.00
2015,12,21,03,12,0.00
2015,12,21,03,13,0.00
2015,12,21,03,14,0.00
2015,12,21,03,15,0.00
2015,12,21,03,16,0.00
2015,12,21,03,17,0.00
2015,12,21,03,18,0.00
2015,12,21,03,19,0.00
2015,12,21,03,20,0.00
2015,12,21,03,21,0.00
2015,12,21,03,22,0.00
2015,12,21,03,23,0.00
2015,12,21,03,24,0.00
2015,12,21,03,25,0.00
2015,12,21,03,26,0.00
2015,12,21,03,27,0.00
2015,12,21,03,28,0.00
2015,12,21,03,29,0.00
2015,12,21,03,30,0.00
2015,12,21,03,31,0.00
2015,12,21,03,32,0.00
2015,12,21,03,33,0.00
2015,12,21,03,34,0.00
2015,12,21,03,35,0.00
2015,12,21,03,36,0.00
2015,12,21,03,37,0.00
2015,12,21,03,38,0.00
2015,12,21,03,39,0.00
2015,12,21,03,40,0.00
2015,12,21,03,41,0.00
2015,12,21,03,42,0.00
2015,12,21,03,43,0.00
2015,12,21,03,44,0.00
2015,12,21,03,45,0.00
2015,12,21,03,46,0.00
2015,12,21,03,47,0.00
2015,12,21,03,48,0.00
2015,12,21,03,49,0.00
2015,12,21,03,50,0.00
2015,12,21,03,51,0.00
2015,12,21,03,52,0.00
2015,12,21,03,53,0.00
2015,12,21,03,54,0.00
2015,12,21,03,55,0.00
2015,12,21,03,56,0.00
2015,12,21,03,57,0.00
2015,12,21,03,58,0.00
2015,12,21,03,59,0.00
2015,12,21,04,00,0.00
2015,12,21,04,01,0.00
2015,12,21,04,02,0.00
2015,12,21,04,03,0.00
2015,12,21,04,04,0.00
2015,12,21,04,05,0.00
2015,12,21,04,06,0.00
2015,12,21,04,07,0.00
2015,12,21,04,08,0.00
2015,12,21,04,09,0.00
2015,12,21,04,10,0.00
2015,12,21,04,11,0.00
2015,12,21,04,12,0.00
2015,12,21,04,13,0.00
2015,12,21,04,14,0.00
2015,12,21,04,15,0.00
2015,12,21,04,16,0.00
2015,12,21,04,17,0.00
2015,12,21,04,18,0.00
2015,12,21,04,19,0.00
2015,12,21,04,20,0.00
2015,12,21,04,21,0.00
2015,12,21,04,22,0.00
2015,12,21,04,23,0.00
2015,12,21,04,24,0.00
2015,12,21,04,25,0.00
2015,12,21,04,26,0.00
2015,12,21,04,27,0.00
2015,12,21,04,28,0.00
2015,12,21,04,29,0.00
2015,12,21,04,30,0.00
2015,12,21,04,31,0.00
2015,12,21,04,32,0.00
2015,12,21,04,33,0.00
2015,12,21,04,34,0.00
2015,12,21,04,35,0.00
2015,12,21,04,36,0.00
2015,12,21,04,37,0.00
2015,12,21,04,38,0.00
2015,12,21,04,39,0.00
2015,12,21,04,40,0.00
2015,12,21,04,41,0.00
2015,12,21,04,42,0.00
2015,12,21,04,43,0.00
2015,12,21,04,44,0.00
2015,12,21,04,45,0.00
2015,12,21,04,46,0.00
2015,12,21,04,47,0.00
2015,12,21,04,48,0.00
2015,12,21,04,49,0.00
2015,12,21,04,50,0.00
2015,12,21,04,51,0.00
2015,12,21,04,52,0.00
2015,12,21,04,53,0.00
2015,12,21,04,54,0.00
2015,12,21,04,55,0.00
2015,12,21,04,56,0.00
2015,12,21,04,57,0.00
2015,12,21,04,58,0.00
2015,12,21,04,59,0.00
2015,12,21,05,00,0.00
2015,12,21,05,01,0.00
2015,12,21,05,02,0.00
2015,12,21,05,03,0.00
2015,12,21,05,04,0.00
2015,12,21,05,05,0.00
2015,12,21,05,06,0.00
2015,12,21,05,07,0.00
2015,12,21,05,08,0.00
2015,12,21,05,09,0.00
2015,12,21,05,10,0.00
2015,12,21,05,11,0.00
2015,12,21,05,12,0.00
2015,12,21,05,13,0.00
2015,12,21,05,14,0.00
2015,12,21,05,15,0.00
2015,12,21,05,16,0.00
2015,12,21,05,17,0.00
2015,12,21,05,18,0.00
2015,12,21,05,19,0.00
2015,12,21,05,20,0.00
2015,12,21,05,21,0.00
2015,12,21,05,22,0.00
2015,12,21,05,23,0.00
2015,12,21,05,24,0.00
2015,12,21,05,25,0.00
2015,12,21,05,26,0.00
2015,12,21,05,27,0.00
2015,12,21,05,28,0.00
2015,12,21,05,29,0.00
2015,12,21,05,30,0.00
2015,12,21,05,31,0.00
2015,12,21,05,32,0.00
2015,12,21,05,33,0.00
2015,12,21,05,34,0.00
2015,12,21,05,35,0.00
2015,12,21,05,36,0.00
2015,12,21,05,37,0.00
2015,12,21,05,38,0.00
2015,12,21,05,39,0.00
2015,12,21,05,40,0.00
2015,12,21,05,41,0.00
2015,12,21,05,42,0.00
2015,12,21,05,43,0.00
2015,12,21,05,44,0.00
2015,12,21,05,45,0.00
2015,12,21,05,46,0.00
2015,12,21,05,47,0.00
2015,12,21,05,48,0.00
2015,12,21,05,49,0.00
2015,12,21,05,50,0.00
2015,12,21,05,51,0.00
2015,12,21,05,52,0.00
2015,12,21,05,53,0.00
2015,12,21,05,54,0.00
2015,12,21,05,55,0.00
2015,12,21,05,56,0.00
2015,12,21,05,57,0.00
2015,12,21,05,58,0.00
2015,12,21,05,59,0.00
2015,12,21,06,00,0.00
2015,12,21,06,01,0.00
2015,12,21,06,02,0.00
2015,12,21,06,03,0.00
2015,12,21,06,04,0.00
2015,12,21,06,05,0.00
2015,12,21,06,06,0.00
2015,12,21,06,07,0.00
2015,12,21,06,08,0.00
2015,12,21,06,09,0.00
2015,12,21,06,10,0.00
2015,12,21,06,11,0.00
2015,12,21,06,12,0.00
2015,12,21,06,13,0.00
2015,12,21,06,14,0.00
2015,12,21,06,15,0.00
2015,12,21,06,16,0.00
2015,12,21,06,17,0.00
2015,12,21,06,18,0.00
2015,12,21,06,19,0.00
2015,12,21,06,20,0.00
2015,12,21,06,21,0.00
2015,12,21,06,22,0.00
2015,12,21,06,23,0.00
2015,12,21,06,24,0.00
2015,12,21,06,25,0.00
2015,12,21,06,26,0.00
2015,12,21,06,27,0.00
2015,12,21,06,28,0.00
2015,12,21,06,29,0.00
2015,12,21,06,30,0.00
2015,12,21,06,31,0.00
2015,12,21,06,32,0.00
2015,12,21,06,33,0.00
2015,12,21,06,34,0.00
2015,12,21,06,35,0.00
2015,12,21,06,36,0.00
2015,12,21,06,37,0.00
2015,12,21,06,38,0.00
2015,12,21,06,39,0.00
2015,12,21,06,40,0.00
2015,12,21,06,41,0.00
2015,12,21,06,42,0.00
2015,12,21,06,43,0.00
2015,12,21,06,44,0.00
2015,12,21,06,45,0.00
2015,12,21,06,46,0.00
2015,12,21,06,47,0.00
2015,12,21,06,48,0.00
2015,12,21,06,49,0.00
2015,12,21,06,50,0.00
2015,12,21,06,51,0.00
2015,12,21,06,52,0.00
2015,12,21,06,53,0.00
2015,12,21,06,54,0.00
2015,12,21,06,55,0.00
2015,12,21,06,56,0.00
2015,12,21,06,57,0.00
2015,12,21,06,58,0.00
2015,12,21,06,59,0.00
2015,12,21,07,00,0.00
2015,12,21,07,01,0.00
2015,12,21,07,02,0.00
2015,12,21,07,03,0.00
2015,12,21,07,04,0.00
2015,12,21,07,05,0.00
2015,12,21,07,06,0.00
2015,12,21,07,07,0.00
2015,12,21,07,08,0.00
2015,12,21,07,09,0.00
2015,12,21,07,10,0.00
2015,12,21,07,11,0.00
2015,12,21,07,12,0.00
2015,12,21,07,13,0.00
2015,12,21,07,14,0.00
2015,12,21,07,15,0.00
2015,12,21,07,16,0.00
2015,12,21,07,17,0.00
2015,12,21,07,18,0.00
2015,12,21,07,19,0.00
2015,12,21,07,20,0.00
2015,12,21,07,21,0.00
2015,12,21,07,22,0.00
2015,12,21,07,23,0.00
2015,12,21,07,24,0.00
2015,12,21,07,25,0.00
2015,12,21,07,26,0.00
2015,12,21,07,27,0.00
2015,12,21,07,28,0.00
2015,12,21,07,29,0.00
2015,12,21,07,30,0.00
2015,12,21,07,31,0.00
2015,12,21,07,32,0.00
2015,12,21,07,33,0.00
2015,12,21,07,34,0.00
2015,12,21,07,35,0.00
2015,12,21,07,36,0.00
2015,12,21,07,37,0.00
2015,12,21,07,38,0.00
2015,12,21,07,39,0.00
2015,12,21,07,40,0.00
2015,12,21,07,41,0.00
2015,12,21,07,42,0.00
2015,12,21,07,43,0.00
2015,12,21,07,44,0.00
2015,12,21,07,45,0.00
2015,12,21,07,46,0.00
2015,12,21,07,47,0.00
2015,12,21,07,48,0.00
2015,12,21,07,49,0.00
2015,12,21,07,50,0.00
2015,12,21,07,51,0.00
2015,12,21,07,52,0.00
2015,12,21,07,53,0.00
2015,12,21,07,54,0.00
2015,12,21,07,55,0.00
2015,12,21,07,56,0.00
2015,12,21,07,57,0.00
2015,12,21,07,58,0.00
2015,12,21,07,59,0.00
2015,12,21,08,00,0.00
2015,12,21,08,01,0.00
2015,12,21,08,02,0.00
2015,12,21,08,03,0.00
2015,12,21,08,04,0.00
2015,12,21,08,05,0.00
2015,12,21,08,06,0.00
2015,12,21,08,07,0.00
2015,12,21,08,08,0.00
2015,12,21,08,09,0.00
2015,12,21,08,10,0.00
2015,12,21,08,11,0.00
2015,12,21,08,12,0.00
2015,12,21,08,13,0.00
2015,12,21,08,14,0.00
2015,12,21,08,15,0.00
2015,12,21,08,16,0.00
2015,12,21,08,17,0.00
2015,12,21,08,18,0.00
2015,12,21,08,19,0.00
2015,12,21,08,20,0.00
2015,12,21,08,21,0.00
2015,12,21,08,22,0.00
2015,12,21,08,23,0.00
2015,12,21,08,24,0.00
2015,12,21,08,25,0.00
2015,12,21,08,26,0.00
2015,12,21,08,27,0.00
2015,12,21,08,28,0.00
2015,12,21,08,29,0.00
2015,12,21,08,30,0.00
2015,12,21,08,31,0.00
2015,12,21,08,32,0.00
2015,12,21,08,33,0.00
2015,12,21,08,34,0.00
2015,12,21,08,35,0.00
2015,12,21,08,36,0.00
2015,12,21,08,37,0.00
2015,12,21,08,38,0.00
2015,12,21,08,39,0.00
2015,12,21,08,40,1.10
2015,12,21,08,41,3.40
2015,12,21,08,42,2.00
2015,12,21,08,43,2.70
2015,12,21,08,44,2.80
2015,12,21,08,45,1.70
2015,12,21,08,46,0.00
2015,12,21,08,47,0.00
2015,12,21,08,48,0.00
2015,12,21,08,49,4.80
2015,12,21,08,50,4.50
2015,12,21,08,51,0.00
2015,12,21,08,52,0.00
2015,12,21,08,53,1.90
2015,12,21,08,54,5.00
2015,12,21,08,55,2.20
2015,12,21,08,56,0.00
2015,12,21,08,57,0.00
2015,12,21,08,58,0.00
2015,12,21,08,59,4.50
2015,12,21,09,00,5.00
2015,12,21,09,01,5.00
2015,12,21,09,02,5.50
2015,12,21,09,03,7.00
2015,12,21,09,04,7.00
2015,12,21,09,05,7.00
2015,12,21,09,06,5.90
2015,12,21,09,07,6.30
2015,12,21,09,08,7.00
2015,12,21,09,09,7.00
2015,12,21,09,10,8.80
2015,12,21,09,11,7.20
2015,12,21,09,12,9.00
2015,12,21,09,13,9.00
2015,12,21,09,14,9.60
2015,12,21,09,15,10.30
2015,12,21,09,16,9.00
2015,12,21,09,17,9.00
2015,12,21,09,18,9.00
2015,12,21,09,19,10.40
2015,12,21,09,20,11.00
2015,12,21,09,21,11.00
2015,12,21,09,22,11.10
2015,12,21,09,23,11.90
2015,12,21,09,24,11.20
2015,12,21,09,25,12.00
2015,12,21,09,26,12.00
2015,12,21,09,27,12.90
2015,12,21,09,28,14.00
2015,12,21,09,29,14.00
2015,12,21,09,30,15.50
2015,12,21,09,31,16.00
2015,12,21,09,32,16.00
2015,12,21,09,33,16.00
2015,12,21,09,34,16.00
2015,12,21,09,35,16.40
2015,12,21,09,36,18.00
2015,12,21,09,37,18.00
2015,12,21,09,38,18.00
2015,12,21,09,39,18.00
2015,12,21,09,40,18.60
2015,12,21,09,41,19.00
2015,12,21,09,42,19.00
2015,12,21,09,43,19.00
2015,12,21,09,44,19.10
2015,12,21,09,45,21.00
2015,12,21,09,46,21.00
2015,12,21,09,47,21.00
2015,12,21,09,48,21.00
2015,12,21,09,49,21.00
2015,12,21,09,50,19.90
2015,12,21,09,51,19.00
2015,12,21,09,52,20.40
2015,12,21,09,53,21.00
2015,12,21,09,57,19.40
2015,12,21,09,58,21.00
2015,12,21,09,59,20.20
2015,12,21,10,00,19.90
2015,12,21,10,01,21.00
2015,12,21,10,02,22.30
2015,12,21,10,03,24.40
2015,12,21,10,04,25.00
2015,12,21,10,05,25.00
2015,12,21,10,06,25.90
2015,12,21,10,07,26.00
2015,12,21,10,08,26.00
2015,12,21,10,09,26.00
2015,12,21,10,10,26.00
2015,12,21,10,11,26.00
2015,12,21,10,12,27.10
2015,12,21,10,13,28.00
2015,12,21,10,14,28.00
2015,12,21,10,15,28.00
2015,12,21,10,16,29.80
2015,12,21,10,17,30.00
2015,12,21,10,18,30.00
2015,12,21,10,19,30.00
2015,12,21,10,20,30.00
2015,12,21,10,21,30.00
2015,12,21,10,22,30.00
2015,12,21,10,23,30.00
2015,12,21,10,24,30.00
2015,12,21,10,25,30.00
2015,12,21,10,26,30.00
2015,12,21,10,27,30.00
2015,12,21,10,28,30.00
2015,12,21,10,29,32.00
2015,12,21,10,30,32.00
2015,12,21,10,31,32.00
2015,12,21,10,32,32.00
2015,12,21,10,33,32.00
2015,12,21,10,34,32.00
2015,12,21,10,35,30.70
2015,12,21,10,36,30.00
2015,12,21,10,37,30.00
2015,12,21,10,38,30.00
2015,12,21,10,39,30.00
2015,12,21,10,40,30.00
2015,12,21,10,41,30.00
2015,12,21,10,42,30.00
2015,12,21,10,43,30.00
2015,12,21,10,44,30.00
2015,12,21,10,45,30.00
2015,12,21,10,46,30.00
2015,12,21,10,47,30.00
2015,12,21,10,48,31.60
2015,12,21,10,49,32.00
2015,12,21,10,50,32.00
2015,12,21,10,51,32.00
2015,12,21,10,52,32.00
2015,12,21,10,53,32.00
2015,12,21,10,54,32.00
2015,12,21,10,55,32.00
2015,12,21,10,56,32.00
2015,12,21,10,57,32.00
2015,12,21,10,58,32.00
2015,12,21,10,59,32.00
2015,12,21,11,00,30.20
2015,12,21,11,01,30.00
2015,12,21,11,02,30.00
2015,12,21,11,03,30.00
2015,12,21,11,04,30.00
2015,12,21,11,05,30.80
2015,12,21,11,06,32.00
2015,12,21,11,07,32.00
2015,12,21,11,08,32.00
2015,12,21,11,09,32.00
2015,12,21,11,10,30.40
2015,12,21,11,11,30.00
2015,12,21,11,12,30.00
2015,12,21,11,13,30.00
2015,12,21,11,14,29.50
2015,12,21,11,15,28.00
2015,12,21,11,16,28.00
2015,12,21,11,17,28.00
2015,12,21,11,18,28.00
2015,12,21,11,19,28.00
2015,12,21,11,20,28.00
2015,12,21,11,21,28.00
2015,12,21,11,22,28.00
2015,12,21,11,23,26.10
2015,12,21,11,24,26.00
2015,12,21,11,25,25.80
2015,12,21,11,26,25.00
2015,12,21,11,27,25.00
2015,12,21,11,28,25.50
2015,12,21,11,29,26.00
2015,12,21,11,30,27.20
2015,12,21,11,31,28.00
2015,12,21,11,32,29.60
2015,12,21,11,33,31.70
2015,12,21,11,34,32.90
2015,12,21,11,35,31.80
2015,12,21,11,36,29.60
2015,12,21,11,37,28.00
2015,12,21,11,38,28.80
2015,12,21,11,39,31.00
2015,12,21,11,40,32.50
2015,12,21,11,41,34.20
2015,12,21,11,42,36.40
2015,12,21,11,43,37.00
2015,12,21,11,44,38.70
2015,12,21,11,45,39.00
2015,12,21,11,46,39.00
2015,12,21,11,47,39.00
2015,12,21,11,48,39.00
2015,12,21,11,49,38.30
2015,12,21,11,50,37.00
2015,12,21,11,51,37.00
2015,12,21,11,52,37.00
2015,12,21,11,53,38.40
2015,12,21,11,54,39.00
2015,12,21,11,55,39.00
2015,12,21,11,56,40.00
2015,12,21,11,57,40.00
2015,12,21,11,58,40.00
2015,12,21,11,59,40.00
2015,12,21,12,00,40.00
2015,12,21,12,01,40.00
2015,12,21,12,02,40.00
2015,12,21,12,03,40.00
2015,12,21,12,04,40.00
2015,12,21,12,05,40.00
2015,12,21,12,06,40.00
2015,12,21,12,07,41.90
2015,12,21,12,08,42.00
2015,12,21,12,09,42.00
2015,12,21,12,10,42.60
2015,12,21,12,11,44.00
2015,12,21,12,12,44.00
2015,12,21,12,13,44.00
2015,12,21,12,14,44.00
2015,12,21,12,15,44.00
2015,12,21,12,16,44.00
2015,12,21,12,17,44.00
2015,12,21,12,18,45.90
2015,12,21,12,19,44.00
2015,12,21,12,20,44.00
2015,12,21,12,21,44.00
2015,12,21,12,22,44.00
2015,12,21,12,23,44.90
2015,12,21,12,24,46.00
2015,12,21,12,25,46.00
2015,12,21,12,26,46.00
2015,12,21,12,27,46.00
2015,12,21,12,28,46.00
2015,12,21,12,29,46.00
2015,12,21,12,30,46.10
2015,12,21,12,31,47.00
2015,12,21,12,32,46.70
2015,12,21,12,33,46.00
2015,12,21,12,34,46.50
2015,12,21,12,35,47.00
2015,12,21,12,36,48.30
2015,12,21,12,37,49.00
2015,12,21,12,38,49.00
2015,12,21,12,39,49.00
2015,12,21,12,40,49.00
2015,12,21,12,41,49.20
2015,12,21,12,42,51.00
2015,12,21,12,43,51.60
2015,12,21,12,44,53.00
2015,12,21,12,45,53.00
2015,12,21,12,46,53.50
2015,12,21,12,47,54.00
2015,12,21,12,48,53.30
2015,12,21,12,49,53.00
2015,12,21,12,50,53.00
2015,12,21,12,51,51.10
2015,12,21,12,52,51.00
2015,12,21,12,53,51.00
2015,12,21,12,54,51.00
2015,12,21,12,55,50.20
2015,12,21,12,56,49.00
2015,12,21,12,57,49.00
2015,12,21,12,58,50.30
2015,12,21,12,59,51.00
2015,12,21,13,00,49.40
2015,12,21,13,01,49.00
2015,12,21,13,02,50.90
2015,12,21,13,03,51.00
2015,12,21,13,04,50.00
2015,12,21,13,05,46.20
2015,12,21,13,06,43.20
2015,12,21,13,07,42.90
2015,12,21,13,08,45.70
2015,12,21,13,09,47.00
2015,12,21,13,10,47.00
2015,12,21,13,11,48.60
2015,12,21,13,12,50.70
2015,12,21,13,13,53.00
2015,12,21,13,14,54.00
2015,12,21,13,15,54.40
2015,12,21,13,16,56.00
2015,12,21,13,17,56.00
2015,12,21,13,18,56.90
2015,12,21,13,19,58.00
2015,12,21,13,20,58.00
2015,12,21,13,21,58.00
2015,12,21,13,22,58.00
2015,12,21,13,23,58.00
2015,12,21,13,24,58.00
2015,12,21,13,25,58.00
2015,12,21,13,26,58.40
2015,12,21,13,27,60.00
2015,12,21,13,28,60.00
2015,12,21,13,29,60.00
2015,12,21,13,30,60.00
2015,12,21,13,31,61.30
2015,12,21,13,32,62.00
2015,12,21,13,33,62.00
2015,12,21,13,34,62.80
2015,12,21,13,35,63.00
2015,12,21,13,36,63.20
2015,12,21,13,37,65.00
2015,12,21,13,38,65.60
2015,12,21,13,39,67.00
2015,12,21,13,40,67.00
2015,12,21,13,41,67.00
2015,12,21,13,42,67.00
2015,12,21,13,43,67.00
2015,12,21,13,44,67.00
2015,12,21,13,45,65.20
2015,12,21,13,46,65.00
2015,12,21,13,47,64.70
2015,12,21,13,48,63.00
2015,12,21,13,49,63.00
2015,12,21,13,50,63.00
2015,12,21,13,51,63.00
2015,12,21,13,52,63.00
2015,12,21,13,53,63.00
2015,12,21,13,54,63.00
2015,12,21,13,55,63.00
2015,12,21,13,56,64.70
2015,12,21,13,57,65.00
2015,12,21,13,58,65.30
2015,12,21,13,59,67.00
2015,12,21,14,00,67.00
2015,12,21,14,01,67.80
2015,12,21,14,02,69.00
2015,12,21,14,03,69.00
2015,12,21,14,04,69.00
2015,12,21,14,05,69.00
2015,12,21,14,06,69.00
2015,12,21,14,07,69.00
2015,12,21,14,08,67.10
2015,12,21,14,09,67.00
2015,12,21,14,10,67.00
2015,12,21,14,11,67.00
2015,12,21,14,12,66.20
2015,12,21,14,13,65.00
2015,12,21,14,14,65.00
2015,12,21,14,15,65.00
2015,12,21,14,16,65.00
2015,12,21,14,17,65.00
2015,12,21,14,18,65.00
2015,12,21,14,19,65.00
2015,12,21,14,20,65.00
2015,12,21,14,21,65.00
2015,12,21,14,22,64.40
2015,12,21,14,23,63.00
2015,12,21,14,24,63.00
2015,12,21,14,25,63.00
2015,12,21,14,26,63.00
2015,12,21,14,27,63.00
2015,12,21,14,28,63.00
2015,12,21,14,29,63.00
2015,12,21,14,30,62.10
2015,12,21,14,31,62.00
2015,12,21,14,32,61.60
2015,12,21,14,33,60.00
2015,12,21,14,34,59.20
2015,12,21,14,35,58.00
2015,12,21,14,36,58.00
2015,12,21,14,37,58.00
2015,12,21,14,38,58.00
2015,12,21,14,39,56.40
2015,12,21,14,40,56.00
2015,12,21,14,41,56.00
2015,12,21,14,42,56.20
2015,12,21,14,43,58.00
2015,12,21,14,44,58.00
2015,12,21,14,45,58.00
2015,12,21,14,46,58.00
2015,12,21,14,47,59.00
2015,12,21,14,48,60.00
2015,12,21,14,49,58.60
2015,12,21,14,50,58.00
2015,12,21,14,51,56.30
2015,12,21,14,52,55.90
2015,12,21,14,53,53.90
2015,12,21,14,54,52.60
2015,12,21,14,55,50.40
2015,12,21,14,56,49.00
2015,12,21,14,57,48.10
2015,12,21,14,58,47.00
2015,12,21,14,59,46.40
2015,12,21,15,00,46.00
2015,12,21,15,01,46.00
2015,12,21,15,02,46.00
2015,12,21,15,03,44.10
2015,12,21,15,04,44.00
2015,12,21,15,05,44.00
2015,12,21,15,06,44.00
2015,12,21,15,07,44.00
2015,12,21,15,08,44.00
2015,12,21,15,09,44.00
2015,12,21,15,10,42.80
2015,12,21,15,11,42.00
2015,12,21,15,12,42.00
2015,12,21,15,13,40.20
2015,12,21,15,14,40.00
2015,12,21,15,15,39.00
2015,12,21,15,16,39.00
2015,12,21,15,17,38.40
2015,12,21,15,18,37.00
2015,12,21,15,19,37.00
2015,12,21,15,20,36.00
2015,12,21,15,21,35.00
2015,12,21,15,22,33.70
2015,12,21,15,23,32.20
2015,12,21,15,24,32.00
2015,12,21,15,25,30.20
2015,12,21,15,26,28.00
2015,12,21,15,27,27.60
2015,12,21,15,28,25.70
2015,12,21,15,29,25.00
2015,12,21,15,30,24.10
2015,12,21,15,31,23.00
2015,12,21,15,32,21.90
2015,12,21,15,33,21.00
2015,12,21,15,34,21.00
2015,12,21,15,35,21.00
2015,12,21,15,36,21.00
2015,12,21,15,37,21.00
2015,12,21,15,38,21.00
2015,12,21,15,39,20.40
2015,12,21,15,40,19.00
2015,12,21,15,41,19.00
2015,12,21,15,42,18.50
2015,12,21,15,43,18.00
2015,12,21,15,44,18.00
2015,12,21,15,45,16.50
2015,12,21,15,46,16.00
2015,12,21,15,47,16.00
2015,12,21,15,48,16.00
2015,12,21,15,49,15.70
2015,12,21,15,50,14.00
2015,12,21,15,51,14.00
2015,12,21,15,52,14.00
2015,12,21,15,53,14.00
2015,12,21,15,54,14.00
2015,12,21,15,55,14.00
2015,12,21,15,56,14.00
2015,12,21,15,57,14.00
2015,12,21,15,58,14.00
2015,12,21,15,59,13.80
2015,12,21,16,00,12.00
2015,12,21,16,01,12.00
2015,12,21,16,02,11.60
2015,12,21,16,03,11.00
2015,12,21,16,04,11.00
2015,12,21,16,05,9.80
2015,12,21,16,06,9.00
2015,12,21,16,07,7.50
2015,12,21,16,08,7.00
2015,12,21,16,09,7.00
2015,12,21,16,10,6.80
2015,12,21,16,11,5.00
2015,12,21,16,12,5.00
2015,12,21,16,13,5.00
2015,12,21,16,14,2.80
2015,12,21,16,15,0.00
2015,12,21,16,16,0.00
2015,12,21,16,17,0.00
2015,12,21,16,18,0.00
2015,12,21,16,19,0.00
2015,12,21,16,20,0.00
2015,12,21,16,21,0.00
2015,12,21,16,22,0.00
2015,12,21,16,23,0.00
2015,12,21,16,24,0.00
2015,12,21,16,25,0.00
2015,12,21,16,26,0.00
2015,12,21,16,27,0.00
2015,12,21,16,28,0.00
2015,12,21,16,29,0.00
2015,12,21,16,30,0.00
2015,12,21,16,31,0.00
2015,12,21,16,32,0.00
2015,12,21,16,33,0.00
2015,12,21,16,34,0.00
2015,12,21,16,35,0.00
2015,12,21,16,36,0.00
2015,12,21,16,37,0.00
2015,12,21,16,38,0.00
2015,12,21,16,39,0.00
2015,12,21,16,40,0.00
2015,12,21,16,41,0.00
2015,12,21,16,42,0.00
2015,12,21,16,43,0.00
2015,12,21,16,44,0.00
2015,12,21,16,45,0.00
2015,12,21,16,46,0.00
2015,12,21,16,47,0.00
2015,12,21,16,48,0.00
2015,12,21,16,49,0.00
2015,12,21,16,50,0.00
2015,12,21,16,51,0.00
2015,12,21,16,52,0.00
2015,12,21,16,53,0.00
2015,12,21,16,54,0.00
2015,12,21,16,55,0.00
2015,12,21,16,56,0.00
2015,12,21,16,57,0.00
2015,12,21,16,58,0.00
2015,12,21,16,59,0.00
2015,12,21,17,00,0.00
2015,12,21,17,01,0.00
2015,12,21,17,02,0.00
2015,12,21,17,03,0.00
2015,12,21,17,04,0.00
2015,12,21,17,05,0.00
2015,12,21,17,06,0.00
2015,12,21,17,07,0.00
2015,12,21,17,08,0.00
2015,12,21,17,09,0.00
2015,12,21,17,10,0.00
2015,12,21,17,11,0.00
2015,12,21,17,12,0.00
2015,12,21,17,13,0.00
2015,12,21,17,14,0.00
2015,12,21,17,15,0.00
2015,12,21,17,16,0.00
2015,12,21,17,17,0.00
2015,12,21,17,18,0.00
2015,12,21,17,19,0.00
2015,12,21,17,20,0.00
2015,12,21,17,21,0.00
2015,12,21,17,22,0.00
2015,12,21,17,23,0.00
2015,12,21,17,24,0.00
2015,12,21,17,25,0.00
2015,12,21,17,26,0.00
2015,12,21,17,27,0.00
2015,12,21,17,28,0.00
2015,12,21,17,29,0.00
2015,12,21,17,30,0.00
2015,12,21,17,31,0.00
2015,12,21,17,32,0.00
2015,12,21,17,33,0.00
2015,12,21,17,34,0.00
2015,12,21,17,35,0.00
2015,12,21,17,36,0.00
2015,12,21,17,37,0.00
2015,12,21,17,38,0.00
2015,12,21,17,39,0.00
2015,12,21,17,40,0.00
2015,12,21,17,41,0.00
2015,12,21,17,42,0.00
2015,12,21,17,43,0.00
2015,12,21,17,44,0.00
2015,12,21,17,45,0.00
2015,12,21,17,46,0.00
2015,12,21,17,47,0.00
2015,12,21,17,48,0.00
2015,12,21,17,49,0.00
2015,12,21,17,50,0.00
2015,12,21,17,51,0.00
2015,12,21,17,52,0.00
2015,12,21,17,53,0.00
2015,12,21,17,54,0.00